Current Version              Previous Version:    01  02  03  04  05  06  07  08  09  10  11  12  13  14  15  16  17  18  19  20  21  22  23  24  25  26  27  28  29  30  
   31  32  33  34  35  36  37  38  39  40  41  42  43  44  45  46  47  48  49  50  51  52  53  54  55  56  57  58  59  60  

[Printable]
209
ASUS44 KEWX 161802
RWRTX
SOUTH TEXAS REGIONAL WEATHER ROUNDUP
NATIONAL WEATHER SERVICE AUSTIN/SAN ANTONIO TX
100 PM CDT WED APR 16 2014

NOTE: "FAIR" INDICATED FEW OR NO CLOUDS BELOW 12,000 FEET WITH NO
SIGNIFICANT WEATHER AND/OR OBSTRUCTIONS TO VISIBILITY.

* - THESE STATIONS ARE NOT NWS OR FAA STATIONS...AND ARE NOT SUBJECT
    TO NWS AND FAA QUALITY CONTROL.

TXZ171-172-183>190-161900-
TEXAS HILL COUNTRY AND EDWARDS PLATEAU

CITY           SKY/WX    TMP DP  RH WIND       PRES   REMARKS
JUNCTION       FAIR      66  29  24 S20G26    30.00F
6HR MIN TEMP:  44; 6HR MAX TEMP:  66;

*LLANO         FAIR      66  32  28 S14G22    30.08F
BURNET         FAIR      63  38  39 S10G23    30.07F
6HR MIN TEMP:  43; 6HR MAX TEMP:  63;

*HORSESHOE BAY FAIR      65  36  33 S9G25     30.04F
6HR MIN TEMP:  40; 6HR MAX TEMP:  65;

*KERRVILLE     FAIR      62  34  35 S16G28    30.05F
*FREDERICKSBRG FAIR      61  32  33 S16G22    30.04F
*ROCKSPRINGS   FAIR      63  32  31 S16G23    30.03F
*BOERNE STAGE  FAIR      63  36  36 S12G25    30.08F
*CASTROVILLE   FAIR      66  36  33 S13G23    30.08F
HONDO          FAIR      69  37  30 S16G22    30.07F
6HR MIN TEMP:  38; 6HR MAX TEMP:  69;

*UVALDE        FAIR      66  39  36 SE12G17   30.06F
DEL RIO        FAIR      69  35  28 SE17G29   29.98F
6HR MIN TEMP:  47; 6HR MAX TEMP:  69;

LAUGHLIN AFB   FAIR      68  36  30 S17G25    29.99F
6HR MIN TEMP:  44; 6HR MAX TEMP:  68;

CARRIZO SPRGS    N/A    N/A N/A N/A MISG        N/A
$$

TXZ173-191>194-202-209-217>225-228-161900-
CENTRAL AND SOUTH CENTRAL TEXAS

CITY           SKY/WX    TMP DP  RH WIND       PRES   REMARKS
GEORGETOWN     SUNNY     63  39  42 S14G23    30.07
AUSTIN/BERGSTM FAIR      66  42  41 SE15      30.08F
6HR MIN TEMP:  32; 6HR MAX TEMP:  66;

AUSTIN/MABRY   FAIR      66  40  38 S9G21     30.09F
6HR MIN TEMP:  41; 6HR MAX TEMP:  67;

*AUSTIN/EXEC   FAIR      64  41  42 S18       30.08F
*LAGO VISTA    FAIR      63  40  42 S13G23    30.09F
SAN MARCOS     SUNNY     66  43  42 SE18      30.10F
NEW BRAUNFELS  FAIR      67  43  41 S9G25     30.06F
6HR MIN TEMP:  35; 6HR MAX TEMP:  69;

RANDOLPH AFB   FAIR      68  42  38 S13G24    30.07F
6HR MIN TEMP:  36; 6HR MAX TEMP:  68;

PT SAN ANTONIO NOT AVBL
SAN ANTONIO    FAIR      67  41  38 S10G22    30.07F
6HR MIN TEMP:  41; 6HR MAX TEMP:  68;

STINSON FIELD  FAIR      69  41  36 S15       30.05F
6HR MIN TEMP:  40; 6HR MAX TEMP:  70;

*PLEASANTON    HVY RAIN  69  41  35 S9        30.08F
6HR MIN TEMP:  35; 6HR MAX TEMP:  69;

*LA GRANGE     FAIR      65  49  56 S12G18    30.09F
*GIDDINGS      FAIR      63  46  52 SE14      30.15F
*GONZALES      FAIR      67  47  48 S10G18    30.09F
$$

TXZ163>164-176>182-195>201-210>213-226-227-235-161900-
SOUTHEAST TEXAS

CITY           SKY/WX    TMP DP  RH WIND       PRES   REMARKS
COLLEGE STN    FAIR      64  44  48 SE16G23   30.11F
6HR MIN TEMP:  42; 6HR MAX TEMP:  64;

*BRYAN         FAIR      62  44  51 S14G21    30.13F
*CALDWELL      FAIR      63  43  48 S13G23    30.15F
*CROCKETT      FAIR      64  39  39 SE9G17    30.19F
*BRENHAM       FAIR      62  45  54 SE14G20   30.14F
HUNTSVILLE     FAIR      60  38  43 S6        30.14F
6HR MIN TEMP:  44; 6HR MAX TEMP:  61;

CONROE         FAIR      61  39  44 SE12G24   30.16F
6HR MIN TEMP:  36; 6HR MAX TEMP:  63;

HOUSTON BUSH   PTSUNNY   63  42  46 E15G24    30.16F
6HR MIN TEMP:  41; 6HR MAX TEMP:  63;

HOUSTON HOBBY  PTSUNNY   63  42  46 E12G24    30.15F
6HR MIN TEMP:  48; 6HR MAX TEMP:  63;

*HOUSTON SW AP FAIR      63  43  48 E10       30.16F
PEARLAND       FAIR      63  41  44 E15G21    30.16F
6HR MIN TEMP:  43; 6HR MAX TEMP:  64;

HOUSTON HOOKS  FAIR      63  44  50 SE12G17   30.15F
6HR MIN TEMP:  40; 6HR MAX TEMP:  64;

ELLINGTON FLD  PTSUNNY   64  43  45 E12G21    30.17F
SUGAR LAND     FAIR      66  45  46 SE13      30.13F
6HR MIN TEMP:  50; 6HR MAX TEMP:  66;

*HOUSTON EXEC  FAIR      64  45  48 E13G20    30.13F
*CLEVELAND MUN FAIR      62  39  43 E3        30.19F
*WHARTON       FAIR      67  48  51 SE12      30.13F
$$

TXZ214>216-236>238-161900-
THE UPPER TEXAS COAST

CITY           SKY/WX    TMP DP  RH WIND       PRES   REMARKS
*ORANGE        FAIR      60  44  54 E10       30.21F
PORT ARTHUR    PTSUNNY   63  46  54 SE15      30.17F
6HR MIN TEMP:  45; 6HR MAX TEMP:  63;

GALVESTON      FAIR      64  48  56 E12       30.16F
6HR MIN TEMP:  57; 6HR MAX TEMP:  64;

ANGLETON       CLOUDY    64  47  53 E15G23    30.13F
6HR MIN TEMP:  40; 6HR MAX TEMP:  67;

*BAY CITY      FAIR      68  48  49 E10G16    30.13F
PALACIOS       LGT RAIN  67  48  50 SE21      30.12F
6HR MIN TEMP:  43; 6HR MAX TEMP:  68; 6HR PCP: TRACE;

$$

TXZ229>234-239>247-161900-
TEXAS COASTAL BEND AND RIO GRANDE PLAINS

CITY           SKY/WX    TMP DP  RH WIND       PRES   REMARKS
VICTORIA       PTSUNNY   70  47  43 SE22G30   30.09F
6HR MIN TEMP:  41; 6HR MAX TEMP:  72;

*BEEVILLE      FAIR      72  45  38 S12G23    30.07F
ROCKPORT       PTSUNNY   70  50  49 SE16      30.09F
6HR MIN TEMP:  59; 6HR MAX TEMP:  72;

*PORT ARANSAS  FAIR      69  50  51 SE14G20   30.10F
*PORT LAVACA   NOT AVBL
*INGLESIDE     FAIR      71  48  44 SE17G23   30.09F
CORPUS CHRISTI PTSUNNY   72  46  39 SE17G25   30.07F
6HR MIN TEMP:  46; 6HR MAX TEMP:  73;

CORPUS NAS     PTSUNNY   71  51  49 SE18G25   30.08F
6HR MIN TEMP:  58; 6HR MAX TEMP:  71;

*ROBSTOWN      FAIR      71  45  38 SE14G23   30.08F
ALICE          FAIR      72  45  37 S10G24    30.06F
6HR MIN TEMP:  37; 6HR MAX TEMP:  73;

KINGSVILLE NAS PTSUNNY   72  49  44 SE13G23   30.07F
6HR MIN TEMP:  39; 6HR MAX TEMP:  73;

COTULLA        FAIR      70  38  31 SE17G23   30.04F
6HR MIN TEMP:  42; 6HR MAX TEMP:  70;

*FAITH RANCH   FAIR      70  36  28 SE15G24   30.03F
LAREDO         FAIR      71  40  32 S10G22    30.05F
6HR MIN TEMP:  49; 6HR MAX TEMP:  71;

$$

TXZ248>255-161900-
DEEP SOUTH TEXAS

CITY           SKY/WX    TMP DP  RH WIND       PRES   REMARKS
BROWNSVILLE    PTSUNNY   72  52  49 SE16      30.06F
6HR MIN TEMP:  50; 6HR MAX TEMP:  73;

PORT ISABEL    FAIR      73  53  49 SE17G24   30.06F
6HR MIN TEMP:  56; 6HR MAX TEMP:  74;

*SOUTH PADRE   FAIR      72  55  56 MISG      30.06F
HARLINGEN      FAIR      74  51  44 SE16G23   30.04F
6HR MIN TEMP:  44; 6HR MAX TEMP:  74;

*HEBBRONVILLE  FAIR      68  41  37 SE13G24   30.07F
MCALLEN        FAIR      74  49  41 SE15G22   30.04F
6HR MIN TEMP:  50; 6HR MAX TEMP:  74;

*WESLACO       FAIR      75  47  37 SE12      30.05F
FALFURRIAS     FAIR      74  47  37 SE12G21   30.06F
EDINBURG       FAIR      74  46  36 SE13G20   30.06F
*ZAPATA        FAIR      71  41  33 SE14      30.04F
$$

TXZ213>215-236>238-242>244-246-247-251-254-255-161900-
CMAN STATIONS

STATION/POSITION TIME  TEMP    WIND        PRES    WAVE
                       AIR SEA DIR/SP/G            HT/PER
                 (UTC) (F)     (DEG/KT/KT) (MB)    (FT/S)
SABINE PASS      1700   58 65  150/  7/ 13 1022.2
SEA RIM ST PARK  1700   58     120/ 10/ 13 1023.1
NORTH JETTY/GLS  1700   59 65  110/ 10/ 13   N/A
EAGLE POINT      1700   58 56  120/ 10/ 12 1021.9
MORGANS POINT    1700   58 62  110/ 11/ 14 1023.4
MISSION/ARANSAS  1700   63     130/ 14     1021.0
PORT O`CONNOR    1700          110/ 15/ 18   N/A
PORT ARANSAS     1700   63 65  130/ 14/ 15 1020.0
MALAQUITE BEACH  1700   64 65  110/ 12/ 16 1018.6
BAFFIN BAY       1700   65 63  130/ 11/ 15 1019.1
PORT ISABEL      1700   67 64  120/ 12/ 16 1018.8
$$

GMZ080-GMZ150>470-161900-
OFFSHORE BUOY REPORTS